Location: Excel
(51.3833°N, 110.5667°W)
Time: 21:23:48
(UTC+00:00)

Envisat - Pass Details

Date: 09 December 2021
Orbit: 764 x 766 km, 98.2° (Epoch: 26 January)

Event Time Altitude Azimuth Distance (km) Brightness Sun altitude
Rises 10:46:12 0° 31° (NNE) 3,246 6.7 -40.6°
Reaches altitude 10° 10:50:18 10° 63° (ENE) 2,311 6.1 -40.0°
Maximum altitude 10:52:03 12° 83° (E) 2,194 6.0 -39.7°
Drops below altitude 10° 10:53:48 10° 104° (ESE) 2,305 6.0 -39.4°
Sets 10:57:50 0° 136° (SE) 3,223 6.6 -38.8°
